Location: Newark
(9.4667°S, 159.8167°E)
Time: 16:27:13
(UTC+00:00)

Courier 1B Rocket - Pass Details

Date: 29 November 2019
Orbit: 920 x 1202 km, 28.2° (Epoch: 07 December)

Event Time Altitude Azimuth Distance (km) Brightness Sun altitude
Rises 20:17:06 0° 259° (W) 3,743 7.6 19.2°
Reaches altitude 10° 20:20:12 10° 269° (W) 2,745 6.9 19.9°
Maximum altitude 20:25:50 30° 328° (NNW) 1,637 6.0 21.2°
Drops below altitude 10° 20:31:14 10° 28° (NNE) 2,618 7.4 22.5°
Sets 20:34:08 0° 39° (NE) 3,544 8.2 23.1°
